User: anonymous   Login
Location: Leuk
(46.3174°N, 7.6341°E)
Time: 10:46:40
(UTC+00:00)
Language:

FENGYUN 1C DEB - Orbit

View from above orbital plane
View from above orbital plane
View from above satellite
View from above satellite

Ground track
Ground track

The orbit data is extracted from the following two-line orbital elements,

1 30405U 99025ADU 21269.45853334  .00000857  00000-0  45696-3 0  9995
2 30405  98.8523 347.4099 0062253 252.8749 169.5530 14.15032745755604
Epoch (UTC): 26 September 2021 11:00:17
Eccentricity: 0.0062253
inclination: 98.8523°
perigee height: 797 km
apogee height: 887 km
right ascension of ascending node: 347.4099°
argument of perigee: 252.8749°
revolutions per day: 14.15032745
mean anomaly at epoch: 169.5530°
orbit number at epoch: 75560

The dashed part of the orbit path shows where the satellite is in the earth's shadow,  

DLR